TimeCDT,TemperatureF,Dew PointF,Humidity,Sea Level PressureIn,VisibilityMPH,Wind Direction,Wind SpeedMPH,Gust SpeedMPH,PrecipitationIn,Events,Conditions,WindDirDegrees,DateUTC
12:52 AM,62.1,55.9,80,30.21,9.0,Calm,Calm,-,N/A,,Clear,0,2013-08-17 05:52:00
1:52 AM,61.0,55.9,83,30.22,9.0,Calm,Calm,-,N/A,,Clear,0,2013-08-17 06:52:00
2:52 AM,61.0,55.9,83,30.22,8.0,Calm,Calm,-,N/A,,Clear,0,2013-08-17 07:52:00
3:52 AM,59.0,55.0,87,30.23,8.0,Calm,Calm,-,N/A,,Clear,0,2013-08-17 08:52:00
4:52 AM,59.0,55.0,87,30.22,7.0,Calm,Calm,-,N/A,,Clear,0,2013-08-17 09:52:00
5:52 AM,57.9,55.0,90,30.24,6.0,Calm,Calm,-,N/A,,Clear,0,2013-08-17 10:52:00
6:52 AM,60.1,55.9,86,30.25,5.0,Calm,Calm,-,N/A,,Clear,0,2013-08-17 11:52:00
7:52 AM,66.0,60.1,81,30.26,6.0,Calm,Calm,-,N/A,,Haze,0,2013-08-17 12:52:00
8:52 AM,72.0,62.1,71,30.26,10.0,Calm,Calm,-,N/A,,Clear,0,2013-08-17 13:52:00
9:52 AM,75.9,55.9,50,30.26,10.0,East,5.8,-,N/A,,Clear,90,2013-08-17 14:52:00
10:52 AM,77.0,53.1,43,30.26,10.0,East,6.9,-,N/A,,Clear,90,2013-08-17 15:52:00
11:52 AM,78.1,52.0,40,30.25,10.0,ENE,9.2,-,N/A,,Clear,70,2013-08-17 16:52:00
12:52 PM,80.1,51.1,36,30.23,10.0,ENE,8.1,-,N/A,,Clear,70,2013-08-17 17:52:00
1:52 PM,79.0,53.1,40,30.22,10.0,East,9.2,-,N/A,,Clear,80,2013-08-17 18:52:00
2:52 PM,79.0,51.1,38,30.21,10.0,NE,6.9,-,N/A,,Clear,50,2013-08-17 19:52:00
3:52 PM,79.0,51.1,38,30.21,10.0,East,10.4,-,N/A,,Clear,100,2013-08-17 20:52:00
4:52 PM,78.1,51.1,39,30.20,10.0,ENE,8.1,-,N/A,,Clear,60,2013-08-17 21:52:00
5:52 PM,77.0,53.1,43,30.21,10.0,NE,8.1,-,N/A,,Clear,50,2013-08-17 22:52:00
6:52 PM,75.0,55.0,50,30.20,10.0,ENE,5.8,-,N/A,,Clear,60,2013-08-17 23:52:00
7:52 PM,72.0,57.9,61,30.20,10.0,Calm,Calm,-,N/A,,Clear,0,2013-08-18 00:52:00
8:52 PM,68.0,60.1,76,30.20,10.0,Calm,Calm,-,N/A,,Clear,0,2013-08-18 01:52:00
9:52 PM,66.9,59.0,76,30.20,10.0,Calm,Calm,-,N/A,,Clear,0,2013-08-18 02:52:00
10:52 PM,64.0,59.0,84,30.19,10.0,Calm,Calm,-,N/A,,Clear,0,2013-08-18 03:52:00
11:52 PM,64.0,59.0,84,30.19,10.0,Calm,Calm,-,N/A,,Clear,0,2013-08-18 04:52:00